This is the latest recevied weather packets stored in our database for station/object ZL3GL-4. If no packets are shown the sender has not sent any weather packets the latest 10 day(s).
| Time | Temp. | Humidity | Pressure | Rain* | Wind** | Luminosity | Snow |
|---|---|---|---|---|---|---|---|
| 1777600065 | 13.33° C | 76% | 1034.9 hPa | 0 mm | 1.79 m/s, 240° | - | - |
| 1777599219 | 13.33° C | 79% | 1034.9 hPa | 0 mm | 2.24 m/s, 160° | - | - |
| 1777598378 | 13.33° C | 78% | 1034.9 hPa | 0 mm | 1.79 m/s, 181° | - | - |
| 1777597533 | 13.33° C | 78% | 1035.1 hPa | 0 mm | 2.24 m/s, 158° | - | - |
| 1777596690 | 13.33° C | 79% | 1035.1 hPa | 0 mm | 2.24 m/s, 174° | - | - |
| 1777595847 | 12.78° C | 79% | 1035.3 hPa | 0 mm | 2.24 m/s, 200° | - | - |
| 1777595002 | 12.78° C | 80% | 1035.4 hPa | 0 mm | 2.24 m/s, 162° | - | - |
| 1777594158 | 12.78° C | 82% | 1035.5 hPa | 0 mm | 1.79 m/s, 246° | - | - |
| 1777593315 | 12.22° C | 83% | 1035.6 hPa | 0 mm | 2.68 m/s, 163° | - | - |
| 1777592474 | 12.22° C | 84% | 1035.6 hPa | 0 mm | 2.24 m/s, 160° | - | - |
| 1777591632 | 12.22° C | 82% | 1035.5 hPa | 0 mm | 0.45 m/s, 105° | - | - |
| 1777590787 | 12.22° C | 82% | 1035.5 hPa | 0 mm | 1.79 m/s, 170° | - | - |
| 1777589947 | 11.67° C | 81% | 1035.5 hPa | 0 mm | 0.45 m/s, 174° | - | - |
| 1777589100 | 11.67° C | 82% | 1035.4 hPa | 0 mm | 2.24 m/s, 149° | - | - |
| 1777588257 | 11.67° C | 82% | 1035.4 hPa | 0 mm | 1.34 m/s, 177° | - | - |
| 1777587412 | 11.67° C | 83% | 1035.3 hPa | 0 mm | 0.89 m/s, 156° | - | - |
| 1777586569 | 11.11° C | 84% | 1035.3 hPa | 0 mm | 1.34 m/s, 160° | - | - |
| 1777585725 | 10.56° C | 88% | 1035.3 hPa | 0 mm | 1.34 m/s, 143° | - | - |
| 1777584885 | 10° C | 92% | 1035.3 hPa | 0 mm | 1.34 m/s, 174° | - | - |
| 1777584039 | 9.44° C | 96% | 1035.2 hPa | 0 mm | 0.89 m/s, 195° | - | - |
| 1777583196 | 8.33° C | 98% | 1035.1 hPa | 0 mm | 0.45 m/s, 225° | - | - |
| 1777582352 | 7.78° C | 99% | 1035 hPa | 0 mm | 0.89 m/s, 255° | - | - |
| 1777581511 | 6.67° C | 100% | 1034.9 hPa | 0 mm | 0.45 m/s, 229° | - | - |
| 1777580666 | 6.11° C | 100% | 1034.8 hPa | 0 mm | 0 m/s | - | - |
| 1777578981 | 5.56° C | 100% | 1034.5 hPa | 0 mm | 0 m/s | - | - |
* Rain latest hour (hover to see other rain measurements)
** Current wind speed in m/s (hover to see current wind gust speed)